Tracking 19800 objects as of 24-Jul-2019
HD Live streaming from Space Station
objects crossing your sky now

PSLV R/B

Track PSLV R/B now!
10-day predictions


NORAD ID: 28050
Int'l Code: 2003-046B
Perigee: 807.4 km
Apogee: 879.7 km
Inclination: 98.7 °
Period: 101.6 minutes
Semi major axis: 7214 km
RCS: 6.3209 m2 (large)
Launch date: October 17, 2003
Source: India (IND)
Launch site: SRIHARIKOTA (SRI)

Note: This is a ROCKET BODY
aabbcc
Your satellite tracking list
Your tracking list is empty




NASA's NSSDC Master Catalog

Two Line Element Set (TLE):
1 28050U 03046B   19204.83912920 -.00000031  00000-0  63963-5 0  9995
2 28050  98.7443 145.4652 0050117 255.8239 116.2141 14.16748020815167
Source of the keplerian elements: AFSPC